Temperature
12 13 13 13 12 12 12 12 12 12 12 12 12 12 12 11 11 11 11 12 12 12 12 12 12 12 12 12 12 12 12 12 12 12 12 12 12 12 12 12 12 12 12
12 12 12 12 12 12 12 12 12 12 12 12 11 11 11 11 11 11 11 11 11 11 11 11 11 11 11 11 11 11 12 12 12 12 12 12 12 12 12 12 12 12 12
12 12 12 12 11 11 11 11 12 11 11 11 11 11 11 11 11 11 11 11 11 11 11 11 11 11 11 11 11 11 11 11 11 11 11 11 11 11 11 11 11 11 11
11 11 11 11 11 11 11 11 11 11 11 11 11 10 10 10 10 10 10 10 10 10 10 10 10 10 11 11 11 10 10 10 10 10 11 11 11 11 11 11 11 11 11
11 11 11 11 11 11 11 11 11 10 10 10 10 10 10 9 9 10 10 10 10 10 10 10 10 10 10 10 10 10 10 10 10 10 10 10 10 10 10 10 10 10 11
10 10 10 10 10 10 10 10 10 10 10 10 10 9 9 9 9 9 9 9 9 9 9 9 9 9 9 9 9 9 9 9 9 9 9 9 9 9 10 10 10 10 10
10 10 10 10 10 10 10 10 10 10 10 9 9 8 8 9 9 9 9 9 9 9 9 9 9 9 9 9 9 9 9 8 8 8 8 9 9 9 9 9 9 9 9
10 10 10 10 9 9 9 9 9 9 9 9 8 8 8 8 8 8 8 8 8 8 8 8 8 8 8 8 8 8 8 8 8 8 8 8 8 8 8 8 9 9 9
9 9 9 9 9 9 9 9 9 9 8 8 8 8 7 8 7 7 8 8 8 8 8 8 8 8 7 7 7 8 8 8 7 7 7 7 7 8 8 8 8 8 8
9 9 9 9 9 9 9 9 9 8 8 8 8 8 7 7 7 7 7 7 7 7 7 7 7 7 7 7 7 7 7 7 7 7 7 7 7 7 7 7 7 7 8
9 9 8 8 8 8 8 8 8 8 8 8 7 7 7 7 6 6 6 6 6 6 6 6 6 6 6 6 6 6 6 6 6 6 6 6 6 6 6 6 6 6 7
8 8 8 8 8 8 8 8 8 8 7 7 7 7 7 6 6 5 5 5 5 5 6 6 6 6 6 6 6 6 6 6 6 6 6 6 6 6 6 6 6 6 6
8 8 8 8 8 7 7 7 7 7 7 7 7 6 6 6 6 5 5 4 4 4 5 5 5 5 5 5 5 5 5 5 5 5 5 5 5 5 5 5 5 5 5
7 7 7 7 7 7 7 7 7 7 7 6 6 6 6 6 5 5 5 4 3 4 4 4 5 4 4 4 4 4 4 4 4 4 4 4 5 5 5 5 5 4 5
7 7 7 7 7 7 7 7 6 6 6 6 6 6 5 5 5 5 5 4 3 3 4 3 3 4 4 4 4 4 4 4 4 4 4 4 4 4 4 4 4 4 4
7 7 7 7 7 6 6 6 6 6 6 6 6 5 5 5 5 4 4 4 4 3 2 3 3 3 3 3 3 3 3 3 3 3 3 3 3 3 3 3 3 3 3
6 6 6 6 6 6 6 6 6 6 5 5 5 5 5 4 4 4 4 3 3 3 2 2 2 3 3 3 3 3 2 2 2 2 3 3 3 3 2 2 2 2 2
6 6 6 6 6 6 5 5 5 5 5 5 5 4 4 4 4 4 3 3 3 2 2 2 2 2 2 2 2 2 2 2 2 2 2 2 2 2 2 2 2 2 2
6 6 6 6 5 5 5 5 5 5 4 4 4 4 4 3 3 3 3 3 2 2 2 2 2 2 1 1 1 1 1 1 1 1 1 1 1 1 1 1 1 1 1
6 5 5 5 5 5 5 4 4 4 4 4 4 4 3 3 3 3 2 2 2 2 1 1 1 1 1 1 0 0 0 0 0 0 0 0 0 0 0 0 0 0 0
5 5 5 5 5 4 4 4 4 4 3 3 3 3 3 3 3 2 2 2 1 1 1 1 0 0 0 -0 -0 -0 -0 -0 -0 -0 -0 -0 -0 -0 -0 -0 -0 -0 -0
5 5 4 4 4 4 4 4 3 3 3 3 3 3 2 2 2 2 2 2 1 1 0 0 -0 -0 -1 -1 -1 -1 -1 -1 -2 -1 -1 -1 -1 -1 -1 -1 -1 -1 -1
4 4 4 4 4 4 3 3 3 3 3 3 2 2 2 2 2 2 1 1 1 1 0 -0 -1 -1 -1 -1 -2 -2 -2 -2 -2 -2 -2 -2 -2 -2 -2 -2 -1 -1 -2
4 4 3 3 3 3 3 3 3 2 2 2 2 2 1 1 1 1 0 0 0 0 -0 -1 -1 -1 -1 -2 -2 -2 -3 -3 -3 -3 -3 -3 -2 -2 -2 -2 -2 -2 -2
3 3 3 3 3 3 3 2 2 2 2 2 2 1 1 1 1 0 -0 -0 -0 -0 -1 -1 -1 -2 -2 -2 -3 -3 -3 -3 -3 -3 -3 -3 -3 -3 -2 -2 -2 -2 -2
3 3 3 2 2 2 2 2 2 1 1 1 1 1 1 1 0 -0 -1 -1 -1 -1 -1 -2 -2 -2 -2 -3 -3 -3 -4 -4 -4 -4 -4 -4 -4 -4 -4 -3 -3 -3 -3
Wind_Speed
2 2 3 2 2 2 2 2 2 2 1 2 1 1 1 2 2 2 2 6 7 7 6 6 6 5 5 5 5 4 5 5 5 5 5 5 6 7 7 7 7 8 9
2 2 3 3 3 3 3 2 2 1 1 1 1 1 1 2 2 2 2 3 6 7 7 6 6 6 6 6 6 5 5 5 5 6 6 5 6 6 7 8 8 8 8
3 2 2 3 3 3 3 2 2 1 1 1 1 2 2 2 2 2 3 3 3 6 7 7 7 8 8 7 7 7 7 6 6 7 7 6 6 6 6 7 8 9 9
3 2 2 3 3 3 3 2 2 2 1 1 1 1 1 2 2 2 3 3 3 4 5 8 8 9 9 9 9 9 9 8 8 8 9 8 8 7 7 7 8 8 9
3 2 2 3 3 3 2 2 2 2 2 2 1 1 1 1 2 2 3 4 5 5 4 6 7 9 10 10 10 10 9 9 9 9 9 9 9 8 8 8 8 8 8
2 2 2 2 3 2 2 2 2 2 1 2 1 1 1 1 1 2 3 3 4 5 5 5 5 6 9 10 11 11 10 9 9 9 10 10 9 9 9 8 8 8 8
2 2 1 2 2 2 2 2 1 1 1 2 1 1 1 1 1 2 2 3 4 4 5 5 5 5 6 8 11 12 11 10 10 9 9 10 11 10 9 9 9 9 9
2 1 2 1 2 1 2 2 1 1 1 1 2 2 2 3 1 1 1 2 3 3 4 5 6 6 6 5 8 11 11 11 10 10 10 10 11 11 10 10 10 9 9
1 1 1 1 1 1 1 2 1 1 1 1 1 2 2 2 2 1 0 1 2 2 3 4 5 6 6 6 6 9 11 11 10 10 10 10 11 11 10 10 10 10 9
0 0 0 1 1 1 1 2 2 2 2 2 1 1 2 2 3 2 2 1 2 2 2 2 3 4 6 5 6 9 11 11 10 10 10 11 12 12 11 10 10 10 9
1 1 1 1 1 1 1 1 2 2 2 2 2 2 2 2 3 3 4 3 2 2 2 2 2 3 5 5 6 9 11 11 11 10 10 11 12 12 11 10 10 10 10
2 2 2 2 2 2 2 2 2 2 2 3 2 3 3 3 3 3 4 5 4 3 3 2 2 2 4 4 6 9 10 11 11 10 10 10 11 11 11 11 10 9 9
2 3 2 2 2 3 3 3 3 3 3 3 3 3 3 3 3 4 4 4 5 4 3 3 2 2 3 3 4 8 8 10 10 10 10 10 10 10 10 11 10 10 9
3 3 3 4 4 4 4 4 4 4 3 3 3 3 3 3 3 4 4 4 5 4 4 4 2 2 2 3 5 7 7 8 9 9 9 9 9 9 9 10 10 10 9
3 3 4 4 4 4 5 4 4 4 4 4 4 4 4 3 3 4 4 4 4 4 5 3 2 2 2 4 5 6 7 8 9 8 8 8 8 9 9 9 9 9 9
4 4 4 5 4 4 5 5 5 4 5 5 4 5 4 4 4 4 4 4 5 5 5 3 3 3 3 4 6 7 7 8 7 7 7 7 8 8 8 8 8 8 9
4 5 5 5 5 5 5 5 5 5 6 6 5 5 6 5 4 4 4 4 5 5 7 6 4 4 5 6 5 6 7 6 6 7 7 7 7 8 8 8 8 8 9
4 5 5 5 5 5 5 6 6 6 6 7 7 6 6 5 6 5 5 5 5 6 7 8 6 5 6 6 6 6 6 6 7 7 7 8 8 9 9 8 8 8 9
4 4 5 5 5 5 6 6 6 6 7 7 7 7 7 6 7 6 6 6 5 5 6 7 7 5 5 5 6 6 6 6 6 6 6 7 9 9 9 9 9 8 8
4 4 5 5 5 5 6 6 6 7 7 7 7 7 7 7 8 7 6 7 6 6 6 7 7 6 6 5 5 5 5 5 5 5 6 7 8 8 8 8 9 9 9
4 4 5 5 5 5 6 6 6 7 7 7 7 7 8 8 8 8 6 7 7 6 6 6 7 6 6 5 5 4 6 6 6 4 5 6 6 6 6 7 8 8 9
4 4 5 5 6 5 6 8 8 7 7 8 8 7 7 8 9 11 11 11 9 9 8 7 7 8 8 7 5 5 5 5 5 3 5 7 5 6 6 6 7 9 9
5 5 5 6 6 7 7 9 9 8 8 8 8 7 6 7 8 8 9 11 11 13 12 10 9 9 8 7 6 7 6 7 7 5 6 7 5 7 6 7 9 10 10
5 5 5 6 7 7 8 9 9 9 8 9 9 9 9 8 8 8 8 8 9 10 11 10 10 10 8 7 7 7 8 8 8 7 5 6 6 6 6 8 8 9 9
5 5 6 6 7 8 8 9 9 7 7 9 9 9 9 9 10 10 9 9 9 9 9 11 12 11 11 11 9 6 6 6 7 6 4 5 5 6 7 6 6 8 9
6 6 6 7 8 8 8 9 9 6 7 8 7 8 10 11 11 11 10 10 10 9 8 8 9 11 11 11 12 9 7 7 6 5 4 4 5 4 4 4 4 6 8
Wind_Direction
56 48 43 34 24 13 1 351 342 352 352 358 354 345 348 347 352 355 17 33 17 11 11 9 7 0 351 345 343 342 343 340 336 321 302 291 281 274 272 274 272 268 266
55 51 46 32 22 8 357 342 350 341 356 358 356 359 356 359 7 6 9 30 32 25 22 18 14 9 3 1 6 4 360 352 350 348 337 317 302 289 278 276 274 274 274
57 51 42 31 19 4 359 354 4 347 12 7 358 5 7 9 15 12 13 12 22 35 30 22 20 21 18 16 17 18 19 12 4 356 348 342 330 317 305 294 284 277 273
56 51 43 31 14 5 3 5 2 353 3 350 353 5 13 23 22 24 25 21 15 18 35 36 34 31 29 26 24 24 22 18 10 3 357 347 339 330 320 315 306 291 280
54 51 42 28 14 13 11 6 6 355 352 356 349 351 4 17 28 36 44 37 30 25 27 46 44 38 33 29 24 20 19 16 11 4 357 350 341 333 325 319 312 304 291
61 51 44 30 15 17 15 10 9 10 350 345 325 339 23 37 35 33 36 43 41 37 35 33 33 36 36 32 26 19 15 12 7 3 0 355 346 335 327 319 313 308 303
61 53 33 33 20 17 5 358 350 352 6 350 295 269 202 115 64 54 40 42 46 42 40 34 29 24 26 28 23 15 10 5 1 0 359 356 351 344 335 328 320 315 313
52 46 35 31 19 359 357 355 350 298 332 349 306 280 259 210 166 66 31 36 37 41 38 33 33 28 23 20 19 14 5 2 360 360 360 356 352 347 344 341 340 337 333
50 41 21 16 18 359 349 336 314 284 276 269 302 290 283 283 297 215 280 19 17 17 23 24 28 25 20 17 9 10 6 1 357 354 355 356 355 351 348 346 344 343 344
214 22 298 321 339 323 319 329 308 280 270 262 260 293 297 307 282 279 233 257 339 336 352 4 11 17 14 8 7 10 6 3 2 0 0 1 358 356 351 351 349 348 350
215 226 249 262 269 277 288 297 292 272 259 257 263 267 260 262 254 267 276 271 282 287 308 322 343 360 4 2 3 11 7 3 360 357 357 357 356 354 354 353 352 353 355
222 220 231 244 251 256 260 263 263 258 258 250 250 245 255 259 261 261 274 281 287 281 277 282 309 341 351 351 4 6 2 358 354 350 348 351 353 354 353 354 352 349 351
237 227 227 241 248 250 253 251 249 246 245 245 248 250 252 257 266 267 268 280 285 283 265 249 258 308 337 340 352 353 351 350 348 347 345 349 353 352 350 347 347 349 348
257 256 240 241 244 248 247 243 247 242 242 243 247 250 250 253 253 256 261 275 281 275 259 253 241 270 317 324 342 333 332 342 339 339 340 343 344 342 340 338 339 342 348
255 256 254 249 243 244 245 243 244 241 239 241 239 238 245 249 247 247 249 252 264 279 280 262 248 238 299 312 326 322 323 331 330 330 332 337 339 337 337 338 337 338 340
253 253 252 253 252 249 246 242 246 243 240 241 241 239 238 242 242 237 239 245 250 261 271 277 269 277 291 293 309 310 311 313 316 318 321 324 328 330 331 330 331 332 332
251 246 245 248 249 249 248 244 243 244 243 244 240 240 241 242 245 240 235 237 241 247 261 274 271 277 281 287 299 300 300 301 304 313 313 316 317 318 319 320 321 323 325
253 250 246 245 247 248 247 246 247 245 245 247 246 242 242 238 242 243 237 238 240 243 255 270 272 273 275 283 291 292 292 290 292 301 301 303 305 305 307 308 307 311 316
258 255 249 249 251 250 249 248 250 250 248 249 248 245 244 241 243 241 239 242 243 244 247 259 269 271 274 276 284 282 282 281 289 288 284 290 295 294 294 297 298 303 307
260 260 255 254 254 253 250 249 247 248 250 249 249 247 246 241 243 244 243 243 243 243 244 251 261 267 270 273 275 282 286 286 290 283 281 288 288 284 282 286 291 294 297
264 265 262 259 255 252 248 247 247 247 251 253 250 247 245 241 243 244 243 244 241 242 245 249 257 264 263 266 269 280 284 295 289 277 292 287 284 276 273 273 276 283 290
268 265 263 264 262 255 252 251 254 254 252 251 252 250 248 241 241 243 244 246 246 244 244 248 254 257 263 265 269 273 283 291 289 279 294 288 280 274 274 277 285 285 284
269 266 267 266 267 264 259 260 252 254 254 251 251 252 250 245 242 245 245 244 246 246 246 250 254 258 265 264 266 268 269 273 277 292 296 283 274 275 277 279 282 279 277
270 269 269 268 270 269 264 265 260 254 254 252 248 248 251 253 243 241 247 248 250 247 242 244 251 259 264 266 259 265 274 277 278 272 267 273 280 279 283 280 271 269 270
274 273 273 272 272 274 266 264 261 257 253 254 251 247 247 252 247 241 245 250 255 255 246 243 251 257 261 259 255 257 258 263 272 267 247 261 279 289 285 273 261 263 269
274 277 275 273 271 275 272 264 258 253 254 258 257 252 244 246 251 244 243 247 253 257 256 253 249 251 254 251 245 243 246 250 260 266 237 245 271 289 287 269 264 266 268
Height
1534 1533 1533 1533 1532 1532 1531 1531 1530 1530 1529 1529 1528 1528 1527 1527 1526 1526 1525 1524 1523 1522 1522 1521 1521 1520 1520 1519 1519 1518 1518 1517 1517 1517 1516 1516 1515 1516 1515 1515 1515 1515 1515
1533 1532 1532 1531 1531 1531 1530 1530 1529 1528 1528 1527 1527 1527 1526 1525 1525 1524 1523 1522 1521 1520 1520 1520 1519 1519 1518 1517 1517 1516 1515 1515 1515 1514 1513 1513 1512 1512 1512 1512 1512 1512 1511
1532 1531 1531 1530 1530 1529 1529 1529 1528 1527 1526 1526 1526 1525 1525 1524 1523 1523 1522 1521 1520 1519 1518 1518 1517 1517 1516 1515 1514 1514 1513 1512 1512 1511 1511 1510 1510 1509 1508 1508 1508 1508 1508
1530 1530 1530 1529 1529 1528 1528 1527 1527 1526 1525 1524 1524 1524 1523 1522 1522 1521 1520 1520 1519 1518 1517 1516 1516 1515 1514 1513 1513 1512 1511 1510 1509 1509 1508 1507 1506 1506 1505 1504 1504 1504 1504
1529 1529 1528 1528 1527 1527 1526 1526 1525 1525 1524 1523 1522 1522 1521 1521 1520 1520 1519 1518 1517 1516 1516 1515 1514 1513 1512 1511 1510 1509 1509 1508 1507 1506 1505 1504 1503 1502 1501 1501 1500 1500 1499
1527 1527 1527 1527 1526 1525 1525 1525 1524 1523 1523 1522 1521 1520 1520 1519 1519 1518 1517 1517 1516 1515 1514 1513 1512 1511 1510 1509 1508 1507 1506 1505 1504 1503 1502 1501 1500 1499 1498 1497 1496 1496 1495
1525 1525 1525 1525 1525 1524 1524 1523 1523 1522 1521 1520 1520 1519 1518 1517 1517 1516 1516 1515 1514 1513 1512 1511 1510 1509 1508 1507 1506 1505 1504 1503 1501 1500 1499 1498 1496 1495 1494 1493 1492 1491 1491
1524 1524 1524 1523 1523 1522 1522 1521 1521 1520 1520 1519 1519 1518 1519 1518 1515 1515 1514 1513 1512 1511 1510 1509 1508 1507 1505 1504 1503 1502 1501 1500 1498 1497 1496 1494 1493 1492 1491 1489 1488 1487 1486
1522 1522 1522 1522 1521 1521 1520 1520 1519 1519 1518 1517 1517 1518 1518 1516 1515 1513 1512 1511 1510 1509 1508 1507 1506 1504 1503 1502 1501 1499 1498 1497 1496 1494 1493 1491 1489 1488 1487 1486 1484 1483 1482
1520 1520 1520 1520 1519 1519 1518 1517 1517 1517 1516 1515 1515 1514 1515 1514 1514 1512 1510 1509 1508 1507 1505 1504 1503 1502 1501 1500 1498 1497 1495 1494 1493 1491 1489 1488 1486 1485 1483 1482 1481 1480 1478
1519 1518 1518 1518 1517 1517 1516 1515 1515 1514 1514 1513 1513 1512 1512 1511 1511 1510 1509 1507 1506 1504 1503 1502 1501 1499 1498 1497 1496 1494 1492 1491 1489 1488 1486 1485 1483 1481 1480 1478 1477 1476 1475
1517 1516 1516 1515 1515 1514 1514 1513 1512 1512 1511 1510 1510 1509 1509 1509 1508 1507 1506 1505 1503 1502 1500 1499 1498 1497 1495 1494 1493 1491 1490 1488 1487 1485 1483 1482 1480 1478 1476 1475 1473 1472 1471
1514 1513 1513 1512 1512 1511 1511 1510 1509 1509 1508 1507 1507 1506 1505 1505 1505 1504 1503 1502 1500 1499 1497 1496 1494 1493 1492 1491 1489 1488 1487 1485 1484 1482 1480 1478 1477 1475 1473 1472 1470 1468 1467
1511 1510 1510 1509 1509 1508 1508 1507 1507 1506 1505 1504 1503 1503 1502 1502 1501 1501 1500 1499 1498 1496 1494 1493 1491 1490 1489 1488 1486 1485 1483 1482 1480 1479 1477 1475 1473 1471 1470 1468 1466 1465 1463
1508 1507 1507 1506 1505 1505 1505 1504 1503 1502 1501 1501 1500 1499 1499 1498 1497 1497 1496 1496 1496 1494 1492 1490 1488 1487 1486 1484 1483 1481 1480 1478 1477 1475 1473 1471 1470 1468 1466 1464 1463 1461 1459
1504 1503 1503 1503 1502 1501 1500 1500 1499 1498 1498 1497 1496 1495 1495 1494 1493 1493 1492 1491 1491 1491 1489 1486 1485 1484 1482 1481 1479 1478 1476 1474 1473 1471 1469 1467 1466 1464 1462 1461 1459 1457 1456
1500 1500 1499 1499 1498 1498 1496 1495 1495 1494 1494 1493 1492 1491 1490 1490 1489 1488 1488 1487 1486 1486 1484 1482 1481 1480 1478 1476 1475 1473 1472 1470 1468 1467 1465 1463 1462 1460 1459 1457 1455 1454 1452
1497 1496 1495 1495 1494 1494 1493 1491 1490 1490 1489 1488 1488 1487 1486 1485 1485 1484 1483 1482 1482 1481 1480 1478 1477 1475 1474 1472 1471 1469 1468 1466 1464 1462 1461 1459 1458 1456 1454 1453 1451 1450 1448
1493 1492 1491 1491 1490 1490 1489 1488 1486 1486 1485 1484 1483 1482 1482 1481 1480 1480 1479 1478 1477 1476 1475 1474 1472 1471 1469 1468 1467 1465 1463 1462 1460 1458 1456 1455 1453 1452 1450 1449 1447 1446 1444
1489 1488 1487 1487 1486 1485 1484 1483 1482 1481 1480 1479 1479 1478 1477 1476 1476 1475 1474 1473 1473 1472 1471 1469 1468 1466 1465 1464 1462 1461 1459 1458 1456 1454 1452 1450 1449 1447 1446 1444 1443 1442 1440
1485 1484 1483 1482 1481 1480 1480 1479 1478 1476 1475 1474 1473 1473 1472 1471 1470 1470 1469 1469 1468 1467 1466 1465 1463 1462 1460 1459 1458 1457 1455 1453 1451 1450 1448 1446 1444 1443 1441 1440 1439 1437 1436
1481 1480 1479 1478 1477 1476 1475 1474 1473 1472 1470 1469 1468 1467 1467 1466 1465 1465 1464 1463 1463 1462 1460 1460 1458 1457 1456 1455 1454 1452 1451 1449 1447 1446 1444 1442 1441 1439 1437 1435 1434 1433 1431
1477 1476 1475 1474 1472 1471 1470 1469 1468 1466 1465 1464 1463 1462 1461 1460 1459 1459 1458 1457 1456 1456 1455 1455 1453 1452 1451 1450 1449 1447 1446 1445 1443 1442 1440 1437 1436 1435 1433 1431 1429 1428 1427
1473 1472 1471 1469 1468 1466 1465 1464 1462 1461 1459 1458 1457 1456 1455 1454 1454 1453 1452 1451 1450 1450 1449 1448 1448 1447 1446 1445 1444 1443 1442 1440 1438 1437 1436 1433 1431 1430 1428 1426 1424 1423 1422
1469 1468 1466 1464 1463 1461 1460 1459 1457 1455 1454 1453 1452 1451 1450 1449 1448 1447 1446 1445 1444 1444 1443 1442 1441 1441 1440 1439 1438 1438 1436 1435 1433 1432 1431 1429 1426 1424 1423 1421 1419 1418 1417
1465 1463 1462 1460 1458 1456 1455 1453 1452 1450 1448 1447 1446 1445 1444 1443 1442 1441 1440 1439 1438 1438 1437 1436 1435 1434 1434 1433 1432 1432 1431 1430 1428 1427 1425 1424 1422 1421 1418 1415 1414 1413 1411